DW0218 Weather Reports


time (UTC)temp
C
wind
direction
speed
KPH
gust
KPH
rain 1hr
cm
rain 24hr
cm
rain mn
cm
humidity
%
barometer
mb
20260507222805 10 285 0.0 3.2 0.00 0.00 0.00 82 1016.0
20260507221804 10 270 1.6 3.2 0.00 0.00 0.00 80 1016.0
20260507214805 10 278 1.6 4.8 0.00 0.00 0.00 80 1016.0
20260507213805 10 231 3.2 8.0 0.00 0.00 0.00 80 1016.0
20260507212805 10 69 0.0 4.8 0.00 0.00 0.00 80 1016.0
20260507210805 10 275 1.6 8.0 0.00 0.00 0.00 76 1016.0
20260507205805 11 202 1.6 3.2 0.00 0.00 0.00 75 1016.0
20260507204805 11 3 1.6 4.8 0.00 0.00 0.00 74 1016.0
20260507201805 11 270 1.6 4.8 0.00 0.00 0.00 67 1016.0
20260507194804 11 270 3.2 4.8 0.00 0.00 0.00 58 1015.0
20260507192806 12 232 1.6 4.8 0.00 0.00 0.00 55 1015.0
20260507185806 12 271 1.6 4.8 0.00 0.00 0.00 52 1014.0
20260507183806 13 231 3.2 9.7 0.00 0.00 0.00 50 1014.0
20260507182805 13 225 3.2 9.7 0.00 0.00 0.00 50 1014.0
20260507181805 13 239 3.2 8.0 0.00 0.00 0.00 49 1014.0
20260507172805 14 64 3.2 8.0 0.00 0.00 0.00 49 1015.0
20260507170805 15 221 3.2 11.3 0.00 0.00 0.00 50 1015.0
20260507164805 15 276 3.2 8.0 0.00 0.00 0.00 49 1015.0
20260507163806 16 293 3.2 8.0 0.00 0.00 0.00 49 1015.0
20260507162806 16 262 1.6 9.7 0.00 0.00 0.00 48 1015.0
20260507154806 16 250 6.4 9.7 0.00 0.00 0.00 50 1015.0
20260507151805 15 248 3.2 4.8 0.00 0.00 0.00 48 1015.0
20260507150805 15 248 1.6 4.8 0.00 0.00 0.00 49 1015.0
20260507144806 16 199 4.8 8.0 0.00 0.00 0.00 49 1015.0
20260507143806 16 221 3.2 8.0 0.00 0.00 0.00 48 1015.0
20260507142805 16 230 3.2 8.0 0.00 0.00 0.00 48 1015.0
20260507140806 16 220 1.6 9.7 0.00 0.00 0.00 49 1015.0
20260507135805 16 244 4.8 9.7 0.00 0.00 0.00 49 1015.0
20260507132805 17 248 4.8 8.0 0.00 0.00 0.00 47 1015.0
20260507125805 18 316 6.4 9.7 0.00 0.00 0.00 45 1015.0
20260507124805 18 187 6.4 11.3 0.00 0.00 0.00 46 1015.0
20260507123805 19 266 4.8 12.9 0.00 0.00 0.00 46 1015.0
20260507122805 18 251 4.8 12.9 0.00 0.00 0.00 46 1016.0
20260507113805 17 204 6.4 11.3 0.00 0.00 0.00 48 1016.0
20260507111805 18 260 6.4 11.3 0.00 0.00 0.00 48 1015.0
20260507103805 19 264 6.4 14.5 0.00 0.00 0.00 48 1016.0
20260507101805 17 286 3.2 11.3 0.00 0.00 0.00 50 1016.0
20260507100806 16 338 3.2 8.0 0.00 0.00 0.00 52 1016.0
20260507094805 18 225 3.2 11.3 0.00 0.00 0.00 50 1016.0
20260507093806 18 266 4.8 11.3 0.00 0.00 0.00 51 1016.0
20260507085805 16 235 6.4 12.9 0.00 0.00 0.00 64 1016.0
20260507083805 15 198 4.8 9.7 0.00 0.00 0.00 63 1016.0
20260507082805 15 224 0.0 4.8 0.00 0.00 0.00 58 1016.0
20260507080805 15 315 3.2 8.0 0.00 0.00 0.00 60 1016.0
20260507075805 15 226 3.2 8.0 0.00 0.00 0.00 71 1016.0
20260507073805 12 338 1.6 8.0 0.00 0.00 0.00 74 1016.0
20260507072806 11 41 3.2 8.0 0.00 0.00 0.00 79 1016.0
20260507071805 10 262 3.2 8.0 0.00 0.00 0.00 83 1016.0
20260507070805 9 229 3.2 4.8 0.00 0.00 0.00 88 1016.0
20260507065806 8 0 0.0 4.8 0.00 0.00 0.00 91 1016.0
20260507064805 8 0 0.0 0.0 0.00 0.00 0.00 92 1016.0
20260507062805 7 0 0.0 0.0 0.00 0.00 0.00 94 1016.0
20260507060805 6 0 0.0 0.0 0.00 0.00 0.00 96 1015.0
20260507055804 6 0 0.0 0.0 0.00 0.00 0.00 95 1015.0
20260507053805 6 0 0.0 0.0 0.00 0.00 0.00 95 1015.0
20260507051804 5 0 0.0 0.0 0.00 0.00 0.00 95 1015.0
20260507050805 5 0 0.0 0.0 0.00 0.00 0.00 95 1015.0
20260507043805 5 0 0.0 0.0 0.00 0.00 0.00 95 1015.0
20260507041805 5 0 0.0 0.0 0.00 0.00 0.00 94 1015.0
20260507040805 5 0 0.0 1.6 0.00 0.00 0.00 94 1015.0
20260507034805 5 0 0.0 0.0 0.00 0.00 0.00 94 1015.0
20260507033805 5 0 0.0 0.0 0.00 0.00 0.00 94 1015.0
20260507032805 5 0 0.0 1.6 0.00 0.00 0.00 93 1015.0
20260507030805 5 0 0.0 0.0 0.00 0.00 0.00 91 1015.0
20260507025805 5 0 0.0 0.0 0.00 0.00 0.00 90 1015.0
20260507024805 5 0 0.0 0.0 0.00 0.00 0.00 89 1015.0
20260507022805 5 0 0.0 0.0 0.00 0.00 0.00 87 1015.0
20260507020805 5 0 0.0 0.0 0.00 0.00 0.00 86 1015.0
20260507011805 6 0 0.0 0.0 0.00 0.00 0.00 84 1015.0
20260507005806 6 0 0.0 0.0 0.00 0.00 0.00 82 1015.0
20260507004805 6 0 0.0 1.6 0.00 0.00 0.00 82 1015.0
20260507002806 7 0 0.0 1.6 0.00 0.00 0.00 80 1015.0
20260507001805 7 0 0.0 0.0 0.00 0.00 0.00 78 1015.0
20260507000805 7 0 0.0 0.0 0.00 0.00 0.00 77 1015.0
20260506234805 7 0 0.0 0.0 0.00 0.00 0.00 75 1015.0
20260506232805 8 0 0.0 0.0 0.00 0.00 0.00 73 1015.0
20260506230820 8 0 0.0 0.0 0.00 0.00 0.00 71 1015.0